{"data":{"norad_id":67202,"intl_designator":"2025-304L","name":"STARLINK-36263","alt_names":[],"object_type":"PAYLOAD","status":"ACTIVE","operator":null,"country":"US","launch_date":"2025-12-17","launch_site_code":"AFWTR","launch_vehicle":null,"mission":null,"orbit_class":"UNKNOWN","rcs_meters":null,"size_class":null,"mass_kg":null,"dimensions":null,"purposes":["comms"],"wikipedia_slug":null,"has_3d_model":false,"image_url":null,"decayed_at":null,"tle_current":{"epoch":"2026-09-20T13:38:15.768384Z","epoch_age_seconds":72372,"freshness":"FRESH","line1":"1 67202U 25304L   26263.56823806  .00003217  00000+0  27718-3 0  9998","line2":"2 67202  70.0012  43.1786 0003030 274.8920  85.1893 14.98343382 43079","mean_motion":14.98343382,"eccentricity":0.000303,"inclination_deg":70.0012,"raan_deg":43.1786,"arg_perigee_deg":274.892,"mean_anomaly_deg":85.1893,"bstar":0.00027718,"rev_number":4307,"period_min":96.106140775146,"perigee_km":569.90861261422,"apogee_km":574.12040442838,"semimajor_km":6950.1515085213,"source":"CELESTRAK","updated_at":"2026-09-21T09:00:36.137165Z"}}}